Date String (YYYY-MM-DD hh:mm:ss) UTC,Instrument flags,absolute air pressure of the measurement (hPa),sample flow rate (lpm),inlet stack bypass flow (lpm),air temperature of the measurement (°C),ambient temperature measured by the external sensor (°C),aerosol sample conditioner tube jacket temperature (°C),OPC LED temperature (°C),internal box temperature (°C),relative humidity of the measurement (%),span deviation,mass concentration of particles derived from Lorenz-Mie calculation of OPC scattering (μg/m³),mass concentration of particles derived from Lorenz-Mie calculation of OPC scattering (μg/m³),mass concentration of particles derived from Lorenz-Mie calculation of OPC scattering (μg/m³)
DateTimeUTC,F1_M11,P_M11,Q1_M11,Q2_M11,T1_M11,T2_M11,T3_M11,T4_M11,T5_M11,U1_M11,ZSPAN_M11,X0_M11,X2_M11,X1_M11
2024-02-26 21:00:00,SystemResetWarning,0816.1,4.99,000.00,023.9,023.3,000.0,032.0,025.6,08.1,0000.0,0005.80,0001.97,0000.79
2024-02-26 21:01:00,SystemResetWarning,0816.1,5.01,000.00,023.9,023.3,000.0,032.0,025.6,08.1,0000.0,0006.16,0001.94,0000.79
2024-02-26 21:02:00,SystemResetWarning,0816.1,5.01,000.00,024.0,023.3,000.0,032.0,025.6,08.0,0000.0,0006.91,0001.91,0000.80
2024-02-26 21:03:00,SystemResetWarning,0816.1,5.00,000.00,024.0,023.3,000.0,032.0,025.6,08.1,0000.0,0006.83,0001.92,0000.79
2024-02-26 21:04:00,SystemResetWarning,0816.1,5.00,000.00,024.0,023.3,000.0,032.1,025.6,07.9,0000.0,0006.65,0001.88,0000.80
2024-02-26 21:05:00,SystemResetWarning,0816.1,4.99,000.00,024.0,023.3,000.0,032.1,025.6,07.8,0000.0,0007.14,0001.86,0000.80
2024-02-26 21:06:00,SystemResetWarning,0816.1,5.00,000.00,024.0,023.3,000.0,032.1,025.6,08.0,0000.0,0007.41,0001.96,0000.80
2024-02-26 21:07:00,SystemResetWarning,0816.1,5.00,000.00,024.0,023.3,000.0,032.1,025.6,08.1,0000.0,0007.45,0002.01,0000.82
2024-02-26 21:08:00,SystemResetWarning,0816.1,5.01,000.00,024.0,023.3,000.0,032.1,025.6,07.7,0000.0,0007.56,0002.05,0000.82
2024-02-26 21:09:00,SystemResetWarning,0816.0,5.00,000.00,024.0,023.3,000.0,032.1,025.6,07.9,0000.0,0007.83,0002.09,0000.81
2024-02-26 21:10:00,SystemResetWarning,0815.9,4.98,000.00,024.0,023.3,000.0,032.1,025.6,07.9,0000.0,0007.63,0002.01,0000.81
2024-02-26 21:11:00,SystemResetWarning,0815.9,5.00,000.00,024.0,023.3,000.0,032.1,025.6,07.9,0000.0,0007.50,0001.93,0000.80
2024-02-26 21:12:00,SystemResetWarning,0815.9,4.99,000.00,024.0,023.3,000.0,032.1,025.6,08.1,0000.0,0007.28,0001.96,0000.80
2024-02-26 21:13:00,SystemResetWarning,0815.9,5.00,000.00,024.0,023.3,000.0,032.1,025.7,08.3,0000.0,0006.69,0002.07,0000.79
2024-02-26 21:14:00,SystemResetWarning,0815.8,5.01,000.00,024.0,023.3,000.0,032.2,025.7,08.1,0000.0,0006.68,0002.08,0000.79
2024-02-26 21:15:00,SystemResetWarning,0815.9,5.01,000.00,024.0,023.3,000.0,032.2,025.7,08.2,0000.0,0006.57,0002.06,0000.79
2024-02-26 21:16:00,SystemResetWarning,0816.0,5.00,000.00,024.0,023.3,000.0,032.2,025.7,08.2,0000.0,0005.55,0002.06,0000.78
2024-02-26 21:17:00,SystemResetWarning,0816.0,4.99,000.00,024.0,023.3,000.0,032.2,025.7,08.2,0000.0,0005.33,0001.98,0000.77
2024-02-26 21:18:00,SystemResetWarning,0815.9,5.00,000.00,024.0,023.3,000.0,032.2,025.7,08.2,0000.0,0005.63,0001.99,0000.75
2024-02-26 21:19:00,SystemResetWarning,0815.9,5.00,000.00,024.0,023.3,000.0,032.2,025.7,08.2,0000.0,0005.94,0001.94,0000.75
2024-02-26 21:20:00,SystemResetWarning,0815.8,5.00,000.00,024.0,023.3,000.0,032.2,025.7,08.4,0000.0,0005.26,0001.90,0000.76
2024-02-26 21:21:00,SystemResetWarning,0815.7,5.00,000.00,024.0,023.3,000.0,032.2,025.7,08.7,0000.0,0005.28,0001.92,0000.76
2024-02-26 21:22:00,SystemResetWarning,0815.7,5.00,000.00,024.0,023.3,000.0,032.2,025.7,08.3,0000.0,0005.25,0001.94,0000.77
2024-02-26 21:23:00,SystemResetWarning,0815.7,5.00,000.00,024.0,023.3,000.0,032.2,025.7,08.3,0000.0,0005.41,0001.95,0000.78
2024-02-26 21:24:00,SystemResetWarning,0815.7,5.01,000.00,024.0,023.3,000.0,032.2,025.7,08.0,0000.0,0005.40,0001.87,0000.78
2024-02-26 21:25:00,SystemResetWarning,0815.6,5.00,000.00,024.0,023.3,000.0,032.3,025.8,08.1,0000.0,0005.44,0001.90,0000.80
2024-02-26 21:26:00,SystemResetWarning,0815.3,5.00,000.00,024.0,023.3,000.0,032.3,025.7,07.9,0000.0,0005.48,0001.92,0000.80
2024-02-26 21:27:00,SystemResetWarning,0815.4,5.00,000.00,024.0,023.3,000.0,032.3,025.7,07.9,0000.0,0005.93,0001.88,0000.81
2024-02-26 21:28:00,SystemResetWarning,0815.4,5.00,000.00,024.0,023.3,000.0,032.3,025.7,08.0,0000.0,0006.05,0001.84,0000.82
2024-02-26 21:29:00,SystemResetWarning,0815.5,4.99,000.00,024.0,023.3,000.0,032.3,025.7,07.8,0000.0,0005.95,0001.82,0000.82
2024-02-26 21:30:00,SystemResetWarning,0815.5,5.00,000.00,024.0,023.3,000.0,032.3,025.7,07.8,0000.0,0006.47,0001.81,0000.82
2024-02-26 21:31:00,SystemResetWarning,0815.5,5.01,000.00,024.0,023.3,000.0,032.3,025.7,07.9,0000.0,0006.40,0001.79,0000.81
2024-02-26 21:32:00,SystemResetWarning,0815.3,5.01,000.00,024.0,023.3,000.0,032.3,025.7,07.8,0000.0,0007.84,0001.88,0000.81
2024-02-26 21:33:00,SystemResetWarning,0815.4,5.01,000.00,024.0,023.3,000.0,032.3,025.7,07.9,0000.0,0008.51,0001.94,0000.80
2024-02-26 21:34:00,SystemResetWarning,0815.5,4.99,000.00,024.0,023.3,000.0,032.3,025.7,07.9,0000.0,0008.71,0001.96,0000.80
2024-02-26 21:35:00,SystemResetWarning,0815.5,4.99,000.00,024.0,023.3,000.0,032.3,025.7,07.9,0000.0,0008.54,0001.93,0000.80
2024-02-26 21:36:00,SystemResetWarning,0815.5,5.00,000.00,024.0,023.3,000.0,032.3,025.7,08.1,0000.0,0008.50,0001.87,0000.79
2024-02-26 21:37:00,SystemResetWarning,0815.6,5.00,000.00,024.0,023.3,000.0,032.3,025.7,08.0,0000.0,0008.54,0001.84,0000.80
2024-02-26 21:38:00,SystemResetWarning,0815.6,5.00,000.00,024.1,023.3,000.0,032.3,025.7,08.2,0000.0,0008.20,0001.86,0000.79
2024-02-26 21:39:00,SystemResetWarning,0815.6,5.00,000.00,024.1,023.3,000.0,032.3,025.7,08.3,0000.0,0008.12,0001.90,0000.79
2024-02-26 21:40:00,SystemResetWarning,0815.5,5.00,000.00,024.1,023.3,000.0,032.3,025.7,08.2,0000.0,0008.13,0001.87,0000.79
2024-02-26 21:41:00,SystemResetWarning,0815.5,5.00,000.00,024.1,023.3,000.0,032.3,025.7,08.2,0000.0,0007.44,0001.86,0000.79
2024-02-26 21:42:00,SystemResetWarning,0815.1,5.00,000.00,024.1,023.4,000.0,032.3,025.8,07.8,0000.0,0007.74,0001.92,0000.79
2024-02-26 21:43:00,SystemResetWarning,0815.2,5.00,000.00,024.1,023.3,000.0,032.3,025.8,07.7,0000.0,0006.54,0001.90,0000.79
2024-02-26 21:44:00,SystemResetWarning,0815.3,5.00,000.00,024.1,023.3,000.0,032.3,025.8,07.8,0000.0,0005.77,0001.88,0000.80
2024-02-26 21:45:00,SystemResetWarning,0815.3,5.00,000.00,024.1,023.3,000.0,032.3,025.8,07.6,0000.0,0004.79,0001.83,0000.79
2024-02-26 21:46:00,SystemResetWarning,0815.4,5.01,000.00,024.1,023.3,000.0,032.3,025.8,07.7,0000.0,0004.94,0001.86,0000.79
2024-02-26 21:47:00,SystemResetWarning,0815.4,5.00,000.00,024.1,023.3,000.0,032.3,025.8,07.9,0000.0,0006.69,0001.94,0000.79
2024-02-26 21:48:00,SystemResetWarning,0815.4,5.00,000.00,024.1,023.3,000.0,032.3,025.7,07.9,0000.0,0007.53,0001.97,0000.78
2024-02-26 21:49:00,SystemResetWarning,0815.4,5.00,000.00,024.1,023.3,000.0,032.3,025.8,07.9,0000.0,0007.44,0001.94,0000.77
2024-02-26 21:50:00,SystemResetWarning,0815.3,5.00,000.00,024.1,023.3,000.0,032.3,025.8,07.6,0000.0,0007.60,0001.93,0000.76
2024-02-26 21:51:00,SystemResetWarning,0815.3,5.00,000.00,024.1,023.3,000.0,032.3,025.8,07.9,0000.0,0007.59,0001.94,0000.76
2024-02-26 21:52:00,SystemResetWarning,0815.5,5.00,000.00,024.1,023.4,000.0,032.3,025.8,07.8,0000.0,0007.54,0001.95,0000.76
2024-02-26 21:53:00,SystemResetWarning,0815.4,4.99,000.00,024.1,023.4,000.0,032.3,025.9,07.8,0000.0,0007.45,0001.92,0000.77
2024-02-26 21:54:00,SystemResetWarning,0815.3,5.00,000.00,024.1,023.4,000.0,032.4,025.9,07.8,0000.0,0007.18,0001.85,0000.76
2024-02-26 21:55:00,SystemResetWarning,0815.3,5.00,000.00,024.1,023.4,000.0,032.4,025.9,07.8,0000.0,0007.30,0001.86,0000.75
2024-02-26 21:56:00,SystemResetWarning,0815.3,5.00,000.00,024.1,023.4,000.0,032.4,025.9,07.8,0000.0,0007.99,0001.92,0000.76
2024-02-26 21:57:00,SystemResetWarning,0815.2,5.01,000.00,024.1,023.4,000.0,032.4,025.9,07.7,0000.0,0008.00,0001.88,0000.76
2024-02-26 21:58:00,SystemResetWarning,0815.0,5.00,000.00,024.1,023.4,000.0,032.4,025.9,07.6,0000.0,0006.90,0001.83,0000.76
2024-02-26 21:59:00,SystemResetWarning,0815.2,5.00,000.00,024.1,023.4,000.0,032.4,025.9,07.6,0000.0,0005.79,0001.82,0000.77
